Victoria, British Columbia

4:12 PM PDT on July 25, 2016 (GMT -0700)
Victoria International

Weather History for CYYJ - May, 2013

Change the Weather History Date:

Tuesday, May 14, 2013

  Actual Average Record
Temperature  
Mean Temperature 54 °F -  
Max Temperature 59 °F 64 °F 75 °F (2012)
Min Temperature 50 °F 46 °F 37 °F (1999)
Degree Days  
Heating Degree Days 10    
Growing Degree Days 4 (Base 50)    
Moisture  
Dew Point 41 °F    
Average Humidity 62    
Maximum Humidity 76    
Minimum Humidity 39    
Precipitation  
Precipitation 0.00 in 0.04 in - ()
Sea Level Pressure  
Sea Level Pressure 30.18 in    
Wind  
Wind Speed 9 mph ()    
Max Wind Speed 16 mph    
Max Gust Speed 22 mph    
Visibility 19.7 miles    
Events Rain    
Averages and records for this station are not official NWS values.
T = Trace of Precipitation, MM = Missing Value Source: Averaged Metar Reports

Daily Weather History Graph

Daily Weather History Graph

Search for Another Location

Airport or City:

Trip Planner

Search our weather history database for the weather conditions in past years. The results will help you decide how hot, cold, wet, or windy it might be!

Date:

Astronomy

May. 14, 2013 Rise Set
Actual Time 5:33 AM PDT 8:47 PM PDT
Civil Twilight 4:55 AM PDT 9:25 PM PDT
Nautical Twilight 4:06 AM PDT 10:14 PM PDT
Astronomical Twilight 3:04 AM PDT 11:18 PM PDT
Moon 9:19 AM PDT (5/14) No Moon Set
Length of Visible Light 16h 29m
Length of Day
15h 13m
Waxing Crescent, 19% of the Moon is Illuminated
May 14
Waxing Crescent
May 17
First Quarter
May 24
Full
May 31
Last Quarter
Jun 8
New

Hourly Weather History & Observations

Time (PDT) Temp. Dew Point Humidity Pressure Visibility Wind Dir Wind Speed Gust Speed Precip Events Conditions
12:00 AM 50.0 °F 39.2 °F 66% 30.17 in 30.0 mi South 12.7 mph - N/A   Mostly Cloudy
1:00 AM 50.0 °F 39.2 °F 66% 30.18 in 30.0 mi South 15.0 mph - N/A   Mostly Cloudy
2:00 AM 50.0 °F 39.2 °F 66% 30.18 in 30.0 mi SW 13.8 mph - N/A   Mostly Cloudy
3:00 AM 50.0 °F 41.0 °F 71% 30.19 in 30.0 mi SW 8.1 mph - N/A   Overcast
4:00 AM 50.0 °F 39.2 °F 66% 30.20 in 30.0 mi SSW 6.9 mph - N/A   Overcast
5:00 AM 50 °F 40 °F 58% 30.21 in 28 mi South 6.9 mph - -   Partly Cloudy
5:00 AM 50.0 °F 39.2 °F 66% 30.21 in 30.0 mi South 6.9 mph - N/A   Mostly Cloudy
6:00 AM 50.0 °F 41.0 °F 71% 30.22 in 30.0 mi South 9.2 mph - N/A   Mostly Cloudy
7:00 AM 50.0 °F 41.0 °F 71% 30.22 in 30.0 mi SE 6.9 mph - N/A   Mostly Cloudy
8:00 AM 51.8 °F 39.2 °F 62% 30.22 in 30.0 mi SSW 5.8 mph - N/A   Mostly Cloudy
9:00 AM 55.4 °F 41.0 °F 58% 30.22 in 30.0 mi SE 9.2 mph - N/A   Mostly Cloudy
10:00 AM 53.6 °F 44.6 °F 72% 30.22 in 30.0 mi ESE 13.8 mph - N/A   Mostly Cloudy
11:00 AM 53.6 °F 44.6 °F 72% 30.21 in 30.0 mi SE 12.7 mph - N/A   Mostly Cloudy
12:00 PM 57.2 °F 42.8 °F 59% 30.21 in 30.0 mi SE 11.5 mph - N/A   Mostly Cloudy
1:00 PM 57.2 °F 42.8 °F 59% 30.19 in 30.0 mi SE 12.7 mph - N/A   Mostly Cloudy
2:00 PM 59.0 °F 41.0 °F 51% 30.19 in 30.0 mi SE 15.0 mph - N/A   Mostly Cloudy
3:00 PM 57.2 °F 39.2 °F 51% 30.17 in 30.0 mi SE 15.0 mph - N/A   Partly Cloudy
4:00 PM 57.2 °F 39.2 °F 51% 30.16 in 30.0 mi ESE 16.1 mph 21.9 mph N/A   Scattered Clouds
5:00 PM 58 °F 40 °F 39% 30.16 in 28 mi SE 12.7 mph - -   Scattered Clouds
5:00 PM 57.2 °F 39.2 °F 51% 30.16 in 30.0 mi SE 13.8 mph 20.7 mph N/A   Mostly Cloudy
6:00 PM 57.2 °F 41.0 °F 55% 30.15 in 30.0 mi ESE 9.2 mph 17.3 mph N/A   Mostly Cloudy
7:00 PM 59.0 °F 42.8 °F 55% 30.14 in 30.0 mi SSE 6.9 mph - N/A   Mostly Cloudy
8:00 PM 57.2 °F 42.8 °F 59% 30.14 in 30.0 mi SSE 5.8 mph - N/A   Overcast
9:00 PM 55.4 °F 42.8 °F 63% 30.14 in 30.0 mi SW 3.5 mph - N/A   Overcast
10:00 PM 53.6 °F 44.6 °F 72% 30.15 in 30.0 mi West 3.5 mph - N/A   Overcast
10:24 PM 51.8 °F - N/A% - 30.0 mi WNW 4.6 mph - N/A Rain Light Rain
11:00 PM 52 °F 44 °F 68% 30.14 in 19 mi WNW 4.6 mph - - Rain Light Rain
11:00 PM 51.8 °F 44.6 °F 76% 30.14 in 20.0 mi NNW 5.8 mph - N/A Rain Light Rain
11:18 PM 51.8 °F - N/A% - 20.0 mi West 4.6 mph - N/A   Overcast